Weather History for Inverness, FL

Change the Weather History Date:

Sunday, November 4, 2012

  Actual Average (KOCF) Record (KOCF)
Temperature  
Mean Temperature 70 °F -  
Max Temperature 80 °F 76 °F 86 °F (2003)
Min Temperature 60 °F 53 °F 33 °F (1999)
Cooling Degree Days 5    
Growing Degree Days 20 (Base 50)    
Moisture  
Dew Point 62 °F    
Average Humidity 87    
Maximum Humidity 100    
Minimum Humidity 44    
Precipitation  
Precipitation 0.01 in - - ()
Sea Level Pressure  
Sea Level Pressure 30.08 in    
Wind  
Wind Speed 0 mph ()    
Max Wind Speed 7 mph    
Max Gust Speed -    
Averages and records for this station are not official NWS values.
T = Trace of Precipitation, MM = Missing Value Source: Averaged Metar Reports

Daily Weather History Graph

Daily Weather History Graph

Search for Another Location

Airport:

Trip Planner

Search our weather history database for the weather conditions in past years. The results will help you decide how hot, cold, wet, or windy it might be!

Date:

Astronomy

Nov. 04, 2012 Rise Set
Actual Time 6:44 AM EST 5:41 PM EST
Civil Twilight 6:19 AM EST 6:05 PM EST
Nautical Twilight 5:51 AM EST 6:33 PM EST
Astronomical Twilight 5:23 AM EST 7:01 PM EST
Moon 10:21 PM EST (11/4) 11:21 AM EST (11/4)
Length of Visible Light 11h 46m
Length of Day
10h 57m
Waning Gibbous, 72% of the Moon is Illuminated
Nov 4
Waning Gibbous
Nov 6
Last Quarter
Nov 13
New
Nov 20
First Quarter
Nov 28
Full

Hourly Weather History & Observations

Time (EST) Temp. Heat Index Dew Point Humidity Pressure Visibility Wind Dir Wind Speed Gust Speed Precip Events Conditions
12:15 AM 60.8 °F - 60.8 °F 100% 30.11 in - Calm Calm - N/A   Overcast
12:35 AM 60.8 °F - 60.8 °F 100% 30.11 in - Calm Calm - N/A   Overcast
12:55 AM 60.8 °F - 60.8 °F 100% 30.12 in - Calm Calm - N/A   Overcast
1:15 AM 62.6 °F - 62.6 °F 100% 30.12 in - Calm Calm - N/A   Overcast
1:35 AM 62.6 °F - 62.6 °F 100% 30.12 in - Calm Calm - N/A   Overcast
1:55 AM 62.6 °F - 62.6 °F 100% 30.12 in - Calm Calm - N/A   Overcast
1:15 AM 62.6 °F - 62.6 °F 100% 30.12 in - Calm Calm - N/A   Overcast
1:35 AM 62.6 °F - 62.6 °F 100% 30.12 in - Calm Calm - N/A   Overcast
1:55 AM 62.6 °F - 62.6 °F 100% 30.11 in - Calm Calm - N/A   Overcast
2:15 AM 62.6 °F - 62.6 °F 100% 30.11 in - Calm Calm - N/A   Overcast
2:35 AM 62.6 °F - 62.6 °F 100% 30.11 in - Calm Calm - N/A   Overcast
2:55 AM 62.6 °F - 62.6 °F 100% 30.11 in - Calm Calm - N/A   Overcast
3:15 AM 62.6 °F - 62.6 °F 100% 30.11 in - Calm Calm - N/A   Overcast
3:35 AM 62.6 °F - 62.6 °F 100% 30.10 in - Calm Calm - N/A   Overcast
3:55 AM 62.6 °F - 62.6 °F 100% 30.11 in - Calm Calm - N/A   Overcast
4:15 AM 62.6 °F - 62.6 °F 100% 30.11 in - Calm Calm - N/A   Overcast
4:35 AM 62.6 °F - 62.6 °F 100% 30.11 in - Calm Calm - N/A   Overcast
4:55 AM 62.6 °F - 62.6 °F 100% 30.11 in - Calm Calm - N/A   Overcast
5:15 AM 62.6 °F - 62.6 °F 100% 30.11 in - Calm Calm - N/A   Overcast
5:35 AM 62.6 °F - 62.6 °F 100% 30.11 in - Calm Calm - N/A   Overcast
5:55 AM 62.6 °F - 62.6 °F 100% 30.11 in - Calm Calm - N/A   Overcast
6:15 AM 62.6 °F - 62.6 °F 100% 30.11 in - Calm Calm - N/A   Overcast
6:35 AM 62.6 °F - 62.6 °F 100% 30.11 in - Calm Calm - N/A   Overcast
6:55 AM 62.6 °F - 62.6 °F 100% 30.11 in - Calm Calm - N/A   Overcast
7:15 AM 62.6 °F - 62.6 °F 100% 30.13 in - Calm Calm - 0.01 in   Overcast
7:35 AM 62.6 °F - 62.6 °F 100% 30.13 in - Calm Calm - 0.01 in   Overcast
7:55 AM 62.6 °F - 62.6 °F 100% 30.13 in - Calm Calm - 0.01 in   Overcast
8:15 AM 62.6 °F - 62.6 °F 100% 30.14 in - Calm Calm - N/A   Overcast
8:35 AM 62.6 °F - 62.6 °F 100% 30.14 in - Calm Calm - N/A   Overcast
8:55 AM 64.4 °F - 64.4 °F 100% 30.14 in - Calm Calm - N/A   Overcast
9:15 AM 64.4 °F - 64.4 °F 100% 30.14 in - Calm Calm - N/A   Overcast
9:35 AM 64.4 °F - 64.4 °F 100% 30.13 in - Calm Calm - N/A   Overcast
9:55 AM 64.4 °F - 64.4 °F 100% 30.14 in - Calm Calm - N/A   Overcast
10:15 AM 66.2 °F - 66.2 °F 100% 30.13 in - Calm Calm - N/A   Overcast
10:35 AM 68.0 °F - 66.2 °F 94% 30.12 in - Calm Calm - N/A   Overcast
10:55 AM 68.0 °F - 68.0 °F 100% 30.12 in - Calm Calm - N/A   Mostly Cloudy
11:15 AM 69.8 °F - 69.8 °F 100% 30.11 in - Calm Calm - N/A   Unknown
11:35 AM 71.6 °F - 68.0 °F 88% 30.10 in - Calm Calm - N/A   Clear
11:55 AM 75.2 °F - 64.4 °F 69% 30.09 in - Calm Calm - N/A   Clear
12:15 PM 78.8 °F - 64.4 °F 61% 30.08 in - Calm Calm - N/A   Scattered Clouds
12:35 PM 78.8 °F - 62.6 °F 57% 30.07 in - WSW 5.8 mph - N/A   Mostly Cloudy
12:55 PM 78.8 °F - 59.0 °F 51% 30.06 in - West 6.9 mph - N/A   Scattered Clouds
1:15 PM 80.6 °F 81.5 °F 60.8 °F 51% 30.06 in - WSW 4.6 mph - N/A   Scattered Clouds
1:55 PM 80.6 °F 81.5 °F 60.8 °F 51% 30.03 in - Calm Calm - N/A   Mostly Cloudy
2:15 PM 78.8 °F - 60.8 °F 54% 30.03 in - SW 4.6 mph - N/A   Mostly Cloudy
2:35 PM 78.8 °F - 59.0 °F 51% 30.03 in - WSW 4.6 mph - N/A   Scattered Clouds
2:55 PM 78.8 °F - 55.4 °F 44% 30.03 in - WSW 5.8 mph - N/A   Clear
3:15 PM 78.8 °F - 55.4 °F 44% 30.03 in - WSW 3.5 mph - N/A   Clear
3:35 PM 78.8 °F - 57.2 °F 47% 30.02 in - West 4.6 mph - N/A   Clear
3:55 PM 77.0 °F - 59.0 °F 54% 30.02 in - West 3.5 mph - N/A   Clear
4:15 PM 75.2 °F - 59.0 °F 57% 30.02 in - West 5.8 mph - N/A   Clear
4:35 PM 73.4 °F - 59.0 °F 61% 30.02 in - West 3.5 mph - N/A   Clear
4:55 PM 73.4 °F - 59.0 °F 61% 30.02 in - West 3.5 mph - N/A   Clear
5:15 PM 71.6 °F - 60.8 °F 69% 30.02 in - Calm Calm - N/A   Clear
5:35 PM 71.6 °F - 60.8 °F 69% 30.03 in - Calm Calm - N/A   Clear
5:55 PM 69.8 °F - 60.8 °F 73% 30.03 in - Calm Calm - N/A   Clear
6:15 PM 69.8 °F - 60.8 °F 73% 30.03 in - Calm Calm - N/A   Clear
6:35 PM 68.0 °F - 60.8 °F 78% 30.03 in - Calm Calm - N/A   Clear
6:55 PM 68.0 °F - 62.6 °F 83% 30.03 in - Calm Calm - N/A   Clear
7:15 PM 64.4 °F - 62.6 °F 94% 30.04 in - Calm Calm - N/A   Unknown
7:35 PM 64.4 °F - 62.6 °F 94% 30.03 in - Calm Calm - N/A   Unknown
7:55 PM 64.4 °F - 62.6 °F 94% 30.04 in - Calm Calm - N/A   Unknown
8:15 PM 64.4 °F - 62.6 °F 94% 30.04 in - Calm Calm - N/A   Unknown
8:35 PM 64.4 °F - 62.6 °F 94% 30.04 in - Calm Calm - N/A   Unknown
8:55 PM 62.6 °F - 62.6 °F 100% 30.04 in - Calm Calm - N/A   Unknown
9:15 PM 62.6 °F - 62.6 °F 100% 30.04 in - Calm Calm - N/A   Overcast
9:35 PM 62.6 °F - 62.6 °F 100% 30.04 in - Calm Calm - N/A   Overcast
9:55 PM 62.6 °F - 62.6 °F 100% 30.04 in - Calm Calm - N/A   Overcast
10:15 PM 62.6 °F - 62.6 °F 100% 30.03 in - Calm Calm - N/A   Overcast
10:35 PM 62.6 °F - 62.6 °F 100% 30.03 in - Calm Calm - N/A   Unknown
10:55 PM 62.6 °F - 62.6 °F 100% 30.03 in - Calm Calm - N/A   Unknown